Starlink 31083

operational
NORAD ID: 58670 Int'l Des: 2023-211 Owner: SPXS Country: US Constellation: starlink
LEOCIRCULAR

About Starlink 31083

Description loading...

Live Position

Loading 3D Globe...

Upcoming Passes

Altitude History

Altitude vs Time

uPlot chart will show altitude changes over time

Two-Line Element Set

1 58670U 23211D 25261.23256667 -.00000547 00000-0 -10313-4 0 9998
2 58670 43.0033 338.8751 0003531 287.3427 72.7038 15.27565820 96093
Epoch: Sep 18, 2025 • Age: 17 hours

Current Status

Altitude 494.1 km
Velocity 7.62 km/s
Sub-Earth Point -42.66°S, 100.13°W
Launch Date Dec 29, 2023
Age 1.7 years
Type internet

Technical Details

Classification Payload
Mass 730.00 kg
Dry Mass 700.00 kg
Total Mass 730.00 kg
Length 0.30 m
Diameter 4.10 m
Span 29.00 m
Shape Box + pan
Manufacturer SPXS
Bus Type Starlink V2M
Phase Status In Orbit
Owner/State SPXS/US

Large Constellations

Loading constellations...